Location: Boiro
(42.6475°N, 8.8834°W)
Time: 02:18:24
(UTC+01:00)

Vanguard 2 - Pass Details

Date: 07 December 2021
Orbit: 553 x 2936 km, 32.9° (Epoch: 20 January)

Event Time Altitude Azimuth Distance (km) Brightness Sun altitude
Rises 17:57:36 0° 260° (W) 3,316 12.3 -0.2°
Reaches altitude 10° 18:00:07 10° 246° (WSW) 2,620 12.4 -0.6°
Maximum altitude 18:05:12 25° 193° (SSW) 2,202 10.5 -1.4°
Drops below altitude 10° 18:12:32 10° 143° (SE) 3,893 11.1 -2.5°
Sets 18:17:18 0° 132° (SE) 5,344 11.6 -3.3°
